Vorticity
11 12 17 21 23 20 21 15 12 23 21 25 24 17 22 9 29 8 9 12 10 11 7 10 9 6 6
16 11 5 8 10 7 11 12 18 12 10 21 8 13 -5 25 3 6 15 5 11 10 7 9 8 7 8
2 1 1 7 10 10 11 6 10 12 16 12 13 14 14 20 20 6 15 14 11 6 9 9 9 9 9
12 12 15 14 14 16 9 9 9 10 8 6 5 28 9 15 9 12 10 9 6 8 10 10 10 7 7
17 18 14 14 16 15 14 15 15 11 6 10 10 10 14 8 5 5 11 7 8 11 12 12 9 8 6
10 7 13 14 14 14 13 15 13 12 10 17 17 17 14 -2 11 8 7 13 6 11 10 13 12 11 10
13 16 18 17 15 18 14 11 7 14 13 15 25 3 9 11 3 -0 20 18 11 9 10 8 6 8 10
13 12 23 24 20 14 13 8 5 9 10 9 37 9 4 3 9 20 11 8 9 11 11 13 13 13 13
10 19 15 12 14 13 11 17 13 24 17 29 5 4 10 1 17 14 9 10 11 12 12 10 10 11 5
14 15 11 17 4 13 16 12 10 14 9 9 11 14 14 5 16 12 10 11 13 9 3 4 16 21 13
9 10 8 11 16 16 17 14 11 26 28 33 3 23 6 18 14 6 9 14 21 21 13 6 6 9 10
7 18 17 9 13 19 22 16 15 26 8 9 12 11 14 12 12 5 15 16 10 6 7 8 8 9 9
12 21 15 10 12 6 10 10 10 8 9 8 8 16 13 10 7 5 9 9 7 7 8 7 6 5 6
14 17 17 10 7 9 6 6 6 9 7 9 15 14 8 5 9 12 9 7 8 9 7 5 4 5 6
10 14 13 12 9 6 6 7 3 2 11 14 13 13 5 8 6 9 9 8 5 3 3 4 6 6 8
7 11 12 11 12 13 15 17 18 17 11 9 11 10 6 2 3 8 6 5 5 5 7 8 9 12 10
7 12 11 12 10 9 7 7 11 14 10 7 4 2 4 8 9 10 9 10 10 8 11 13 10 9 7
Height
5698 5693 5691 5688 5685 5682 5679 5678 5675 5671 5669 5668 5667 5667 5666 5666 5667 5670 5672 5673 5675 5677 5679 5681 5683 5685 5687
5685 5684 5680 5677 5674 5671 5669 5666 5664 5662 5661 5658 5658 5657 5656 5656 5657 5659 5662 5664 5667 5669 5672 5673 5675 5678 5680
5675 5671 5669 5665 5662 5660 5657 5655 5654 5653 5650 5649 5648 5647 5647 5648 5649 5650 5654 5658 5660 5662 5665 5666 5668 5670 5673
5660 5658 5655 5652 5650 5649 5647 5644 5644 5643 5642 5641 5639 5638 5638 5640 5643 5645 5648 5650 5653 5654 5656 5658 5660 5663 5665
5650 5646 5642 5641 5637 5636 5634 5634 5633 5632 5632 5631 5631 5630 5630 5632 5635 5637 5638 5641 5644 5646 5648 5650 5652 5654 5656
5637 5634 5631 5629 5626 5624 5624 5624 5623 5622 5622 5622 5622 5621 5622 5624 5627 5629 5630 5633 5635 5637 5640 5642 5644 5646 5648
5624 5621 5619 5617 5615 5615 5615 5614 5613 5613 5613 5613 5613 5614 5616 5618 5619 5621 5623 5624 5627 5629 5631 5634 5636 5638 5640
5612 5610 5609 5606 5606 5606 5605 5605 5604 5604 5604 5604 5604 5607 5609 5611 5613 5614 5615 5617 5620 5621 5623 5625 5627 5629 5631
5605 5602 5600 5598 5597 5597 5596 5596 5596 5595 5595 5595 5597 5599 5602 5605 5606 5607 5608 5609 5611 5613 5615 5617 5619 5621 5622
5597 5595 5593 5590 5589 5588 5587 5587 5587 5587 5587 5589 5590 5593 5596 5598 5599 5600 5601 5602 5603 5605 5607 5609 5610 5612 5614
5589 5587 5585 5583 5581 5580 5579 5579 5579 5580 5581 5583 5586 5588 5589 5591 5592 5593 5594 5595 5596 5597 5599 5601 5603 5604 5605
5580 5578 5576 5576 5574 5573 5573 5573 5574 5575 5576 5577 5578 5580 5581 5583 5585 5586 5587 5588 5589 5591 5592 5593 5594 5595 5596
5570 5569 5568 5568 5567 5567 5568 5568 5569 5569 5570 5571 5571 5573 5574 5576 5577 5579 5580 5581 5582 5584 5585 5585 5586 5587 5587
5562 5561 5561 5561 5561 5561 5561 5562 5563 5563 5563 5564 5565 5566 5567 5569 5571 5572 5573 5574 5575 5576 5576 5577 5577 5577 5576
5554 5553 5554 5554 5555 5555 5555 5556 5556 5556 5557 5557 5558 5559 5561 5562 5563 5564 5565 5565 5566 5566 5566 5566 5565 5565 5564
5545 5545 5546 5548 5548 5548 5549 5549 5549 5550 5550 5551 5551 5553 5554 5555 5555 5555 5556 5556 5556 5556 5555 5554 5552 5551 5550
5536 5537 5539 5540 5540 5541 5542 5542 5542 5543 5543 5543 5544 5545 5546 5545 5545 5544 5545 5545 5545 5544 5542 5541 5539 5538 5536